LA5PPA-1 Weather Reports


time (UTC)temp
F
wind
direction
speed
knots
gust
knots
rain 1hr
in
rain 24hr
in
rain mn
in
humidity
%
barometer
mb
20260506030154 17 92 0.0 0.0 0.00 0.00 0.00 82 1016.6
20260506025654 17 92 0.0 2.6 0.00 0.00 0.00 82 1016.6
20260506025256 17 119 2.6 2.6 0.00 0.00 0.00 82 1016.5
20260506025154 17 125 1.7 2.6 0.00 0.00 0.00 82 1016.5
20260506024654 18 81 0.0 0.0 0.00 0.00 0.00 82 1016.5
20260506024154 18 81 0.0 0.0 0.00 0.00 0.00 81 1016.6
20260506023655 18 81 0.0 0.0 0.00 0.00 0.00 81 1016.6
20260506023154 18 81 0.0 1.7 0.00 0.00 0.00 81 1016.5
20260506023056 19 81 0.0 2.6 0.00 0.00 0.00 81 1016.6
20260506022655 19 125 1.7 2.6 0.00 0.00 0.00 80 1016.6
20260506022155 19 127 1.7 2.6 0.00 0.00 0.00 80 1016.6
20260506021956 19 132 0.9 2.6 0.00 0.00 0.00 80 1016.6
20260506021655 19 132 1.7 1.7 0.00 0.00 0.00 80 1016.5
20260506021155 19 261 0.0 0.0 0.00 0.00 0.00 81 1016.5
20260506020856 19 261 0.0 0.0 0.00 0.00 0.00 81 1016.5
20260506020655 19 261 0.0 0.0 0.00 0.00 0.00 80 1016.5
20260506020155 20 261 0.0 0.0 0.00 0.00 0.00 80 1016.4
20260506015756 20 261 0.0 0.0 0.00 0.00 0.00 80 1016.4
20260506015655 20 261 0.0 0.0 0.00 0.00 0.00 80 1016.4
20260506015155 20 261 0.0 0.0 0.00 0.00 0.00 80 1016.5
20260506014655 20 261 0.0 0.0 0.00 0.00 0.00 80 1016.5
20260506014155 20 261 0.0 0.0 0.00 0.00 0.00 80 1016.4
20260506013655 20 261 0.0 0.0 0.00 0.00 0.00 81 1016.4
20260506013556 20 261 0.0 0.0 0.00 0.00 0.00 81 1016.4
20260506013155 20 261 0.0 0.0 0.00 0.00 0.00 81 1016.4
20260506012655 19 261 0.0 0.0 0.00 0.00 0.00 82 1016.4
20260506012456 19 261 0.0 0.9 0.00 0.00 0.00 81 1016.3
20260506012155 19 319 0.0 0.9 0.00 0.00 0.00 80 1016.3
20260506011655 19 74 0.0 0.0 0.00 0.00 0.00 79 1016.3
20260506011356 19 74 0.0 0.0 0.00 0.00 0.00 79 1016.3
20260506011155 19 74 0.0 0.0 0.00 0.00 0.00 79 1016.4
20260506010655 19 74 0.0 0.0 0.00 0.00 0.00 79 1016.3
20260506010256 20 74 0.0 0.0 0.00 0.00 0.00 78 1016.3
20260506010155 20 74 0.0 0.0 0.00 0.00 0.00 78 1016.3
20260506005655 20 74 0.0 1.7 0.00 0.00 0.00 78 1016.2
20260506005155 20 320 0.0 0.0 0.00 0.00 0.00 78 1016.3
20260506004655 21 320 0.0 0.0 0.00 0.00 0.00 78 1016.2
20260506004155 21 320 0.0 0.9 0.00 0.00 0.00 78 1016.1
20260506004056 21 320 0.0 0.9 0.00 0.00 0.00 78 1016.2
20260506003655 21 112 0.0 2.6 0.00 0.00 0.00 77 1016.2
20260506003155 21 118 0.0 1.7 0.00 0.00 0.00 77 1016.3
20260506002956 21 292 0.0 0.0 0.00 0.00 0.00 77 1016.3
20260506002655 22 292 0.0 0.0 0.00 0.00 0.00 77 1016.2
20260506002155 22 292 0.0 0.0 0.00 0.00 0.00 78 1016.2
20260506001856 22 292 0.0 0.9 0.00 0.00 0.00 78 1016.2
20260506001655 22 292 0.0 3.5 0.00 0.00 0.00 78 1016.2
20260506001155 22 299 2.6 3.5 0.00 0.00 0.00 78 1016.2
20260506000756 22 336 0.0 4.3 0.00 0.00 0.00 78 1016.2
20260506000655 22 344 0.0 5.2 0.00 0.00 0.00 78 1016.2
20260506000155 22 307 5.2 5.2 0.00 0.00 0.00 77 1016.2
20260505235655 22 293 0.0 3.5 0.00 0.00 0.00 77 1016.3
20260505235155 22 303 0.9 5.2 0.00 0.00 0.00 76 1016.3
20260505234655 22 296 1.7 3.5 0.00 0.00 0.00 76 1016.2
20260505234556 22 298 0.0 3.5 0.00 0.00 0.00 76 1016.3
20260505234155 22 319 0.9 4.3 0.00 0.00 0.00 75 1016.3
20260505233655 22 317 0.9 0.9 0.00 0.00 0.00 75 1016.2
20260505233456 22 302 0.0 1.7 0.00 0.00 0.00 75 1016.2
20260505233155 22 316 0.9 2.6 0.00 0.00 0.00 74 1016.2
20260505232655 22 323 2.6 4.3 0.00 0.00 0.00 74 1016.2
20260505232356 22 300 0.0 4.3 0.00 0.00 0.00 74 1016.2
20260505232155 22 291 0.0 2.6 0.00 0.00 0.00 73 1016.2
20260505231655 22 330 1.7 2.6 0.00 0.00 0.00 73 1016.2
20260505231256 22 326 0.0 3.5 0.00 0.00 0.00 73 1016.2
20260505231155 22 326 0.0 3.5 0.00 0.00 0.00 73 1016.2
20260505230655 22 305 1.7 3.5 0.00 0.00 0.00 73 1016.2
20260505230155 22 320 0.0 0.9 0.00 0.00 0.00 72 1016.2
20260505225655 22 307 0.0 0.9 0.00 0.00 0.00 72 1016.3
20260505225155 22 331 0.0 0.0 0.00 0.00 0.00 70 1016.2
20260505225056 22 331 0.0 0.0 0.00 0.00 0.00 70 1016.2
20260505224655 22 331 0.0 0.0 0.00 0.00 0.00 70 1016.2
20260505224155 23 331 0.0 0.0 0.00 0.00 0.00 69 1016.2
20260505223956 23 331 0.0 0.0 0.00 0.00 0.00 69 1016.2
20260505223655 23 331 0.0 0.0 0.00 0.00 0.00 68 1016.2
20260505223155 23 331 0.0 0.0 0.00 0.00 0.00 68 1016.1
20260505222856 24 331 0.0 0.0 0.00 0.00 0.00 68 1016.1
20260505222655 24 331 0.0 0.0 0.00 0.00 0.00 68 1016.1
20260505222155 24 331 0.0 0.0 0.00 0.00 0.00 68 1016.1
20260505221756 24 331 0.0 0.0 0.00 0.00 0.00 68 1016.2
20260505221655 24 331 0.0 0.0 0.00 0.00 0.00 68 1016.2
20260505221155 24 331 0.0 0.0 0.00 0.00 0.00 67 1016.2
20260505220836 24 331 0.0 0.0 0.00 0.00 0.00 67 1016.2
20260505220656 24 331 0.0 0.0 0.00 0.00 0.00 67 1016.2
20260505220155 24 331 0.0 0.0 0.00 0.00 0.00 67 1016.2
20260505215655 25 331 0.0 0.0 0.00 0.00 0.00 66 1016.2
20260505215556 25 331 0.0 0.0 0.00 0.00 0.00 66 1016.2
20260505215155 25 331 0.0 0.0 0.00 0.00 0.00 66 1016.2
20260505214655 25 331 0.0 1.7 0.00 0.00 0.00 66 1016.2
20260505214456 25 315 0.0 1.7 0.00 0.00 0.00 66 1016.2
20260505214155 25 257 0.0 3.5 0.00 0.00 0.00 66 1016.1
20260505213655 25 322 0.0 6.1 0.00 0.00 0.00 66 1016.1
20260505213356 25 344 0.9 5.2 0.00 0.00 0.00 67 1016.1
20260505213155 25 317 3.5 3.5 0.00 0.00 0.00 67 1016.1
20260505212655 25 345 0.0 2.6 0.00 0.00 0.00 68 1015.9
20260505212256 25 330 1.7 1.7 0.00 0.00 0.00 67 1016.1
20260505212155 25 313 0.0 0.0 0.00 0.00 0.00 67 1015.9
20260505211655 25 313 0.0 0.0 0.00 0.00 0.00 66 1015.9
20260505211155 25 313 0.0 0.0 0.00 0.00 0.00 66 1015.9
20260505210655 25 313 0.0 2.6 0.00 0.00 0.00 66 1015.9
20260505210155 26 300 0.0 3.5 0.00 0.00 0.00 66 1015.8
20260505210056 26 305 0.0 4.3 0.00 0.00 0.00 66 1015.8
20260505205655 26 302 1.7 6.1 0.00 0.00 0.00 66 1015.8
20260505205155 26 295 5.2 5.2 0.00 0.00 0.00 66 1015.7
20260505204956 26 281 0.9 4.3 0.00 0.00 0.00 66 1015.7
20260505204655 26 292 0.0 5.2 0.00 0.00 0.00 65 1015.8
20260505204155 26 295 5.2 6.1 0.00 0.00 0.00 65 1015.8
20260505203856 26 292 0.0 0.0 0.00 0.00 0.00 65 1015.8
20260505203655 26 292 0.0 0.0 0.00 0.00 0.00 65 1015.7
20260505203155 27 292 0.0 0.0 0.00 0.00 0.00 65 1015.8
20260505202756 27 292 0.0 4.3 0.00 0.00 0.00 65 1015.7
20260505202655 27 292 0.0 4.3 0.00 0.00 0.00 65 1015.7
20260505202155 27 258 2.6 3.5 0.00 0.00 0.00 65 1015.6
20260505201655 27 317 1.7 3.5 0.00 0.00 0.00 65 1015.6
20260505201155 27 329 0.9 3.5 0.00 0.00 0.00 65 1015.6
20260505200655 27 320 0.9 4.3 0.00 0.00 0.00 65 1015.5
20260505200556 27 274 1.7 4.3 0.00 0.00 0.00 65 1015.6
20260505200155 27 306 0.9 5.2 0.00 0.00 0.00 65 1015.5
20260505195655 27 286 0.9 6.1 0.00 0.00 0.00 64 1015.4
20260505195456 27 324 2.6 8.7 0.00 0.00 0.00 64 1015.4
20260505195155 28 326 2.6 8.7 0.00 0.00 0.00 64 1015.4
20260505194655 28 322 1.7 6.1 0.00 0.00 0.00 63 1015.3
20260505194356 28 329 1.7 6.1 0.00 0.00 0.00 63 1015.3
20260505194155 28 300 2.6 6.1 0.00 0.00 0.00 63 1015.2
20260505193655 28 285 3.5 7.0 0.00 0.00 0.00 62 1015.2
20260505193257 28 307 2.6 7.0 0.00 0.00 0.00 62 1015.2
20260505193155 28 307 4.3 7.0 0.00 0.00 0.00 62 1015.2
20260505192655 29 298 2.6 5.2 0.00 0.00 0.00 63 1015.2
20260505192155 29 320 1.7 6.1 0.00 0.00 0.00 62 1015.2
20260505191655 29 299 2.6 4.3 0.00 0.00 0.00 62 1015.0
20260505191155 30 299 3.5 7.0 0.00 0.00 0.00 62 1015.0
20260505191056 30 281 5.2 7.0 0.00 0.00 0.00 61 1015.0
20260505190655 30 299 2.6 7.0 0.00 0.00 0.00 61 1014.9
20260505190155 31 313 2.6 8.7 0.00 0.00 0.00 58 1014.9
20260505185956 32 300 5.2 8.7 0.00 0.00 0.00 58 1014.9
20260505185655 32 289 5.2 7.8 0.00 0.00 0.00 59 1014.8
20260505185155 31 291 4.3 7.8 0.00 0.00 0.00 59 1014.7
20260505184856 32 299 5.2 8.7 0.00 0.00 0.00 57 1014.8
20260505184655 32 302 6.1 8.7 0.00 0.00 0.00 58 1014.7
20260505184155 32 306 0.9 6.1 0.00 0.00 0.00 61 1014.7
20260505183756 31 326 4.3 6.1 0.00 0.00 0.00 62 1014.7
20260505183655 31 324 2.6 6.1 0.00 0.00 0.00 63 1014.7
20260505183155 31 309 2.6 5.2 0.00 0.00 0.00 64 1014.7
20260505182655 30 298 1.7 4.3 0.00 0.00 0.00 65 1014.7
20260505182155 30 298 0.0 6.1 0.00 0.00 0.00 65 1014.7
20260505181655 30 323 4.3 6.1 0.00 0.00 0.00 64 1014.6
20260505181556 30 278 4.3 7.0 0.00 0.00 0.00 63 1014.7
20260505181155 31 319 1.7 7.0 0.00 0.00 0.00 62 1014.7
20260505180655 31 293 0.9 5.2 0.00 0.00 0.00 61 1014.7
20260505180457 31 320 1.7 5.2 0.00 0.00 0.00 61 1014.7
20260505180155 31 286 3.5 7.8 0.00 0.00 0.00 61 1014.6
20260505175655 32 296 1.7 6.1 0.00 0.00 0.00 59 1014.6
20260505175357 32 322 4.3 4.3 0.00 0.00 0.00 59 1014.6
20260505175155 32 307 0.0 5.2 0.00 0.00 0.00 58 1014.6
20260505174655 32 307 4.3 8.7 0.00 0.00 0.00 57 1014.5
20260505174257 32 307 2.6 7.8 0.00 0.00 0.00 55 1014.5
20260505174156 32 324 2.6 8.7 0.00 0.00 0.00 55 1014.6
20260505173655 32 326 4.3 8.7 0.00 0.00 0.00 52 1014.6
20260505173156 33 255 7.0 9.6 0.00 0.00 0.00 52 1014.6
20260505172655 33 292 5.2 10.4 0.00 0.00 0.00 51 1014.6
20260505172156 33 309 3.5 9.6 0.00 0.00 0.00 51 1014.6
20260505172057 33 300 2.6 12.2 0.00 0.00 0.00 51 1014.6
20260505171656 33 300 4.3 12.2 0.00 0.00 0.00 48 1014.6
20260505171156 34 289 2.6 9.6 0.00 0.00 0.00 51 1014.6
20260505170957 33 299 2.6 6.1 0.00 0.00 0.00 51 1014.5
20260505170656 33 270 4.3 9.6 0.00 0.00 0.00 50 1014.6
20260505170156 33 310 1.7 7.8 0.00 0.00 0.00 50 1014.5
20260505165858 33 300 2.6 9.6 0.00 0.00 0.00 49 1014.5
20260505165656 33 275 3.5 9.6 0.00 0.00 0.00 48 1014.6
20260505165156 33 312 0.0 6.1 0.00 0.00 0.00 52 1014.5
20260505164757 32 8 0.0 8.7 0.00 0.00 0.00 52 1014.6
20260505164656 32 319 0.9 8.7 0.00 0.00 0.00 52 1014.7
20260505164156 32 316 5.2 7.0 0.00 0.00 0.00 52 1014.6
20260505163656 32 284 1.7 9.6 0.00 0.00 0.00 51 1014.7
20260505163156 32 307 1.7 7.8 0.00 0.00 0.00 50 1014.7
20260505162656 32 313 2.6 7.0 0.00 0.00 0.00 49 1014.5
20260505162557 32 312 2.6 7.0 0.00 0.00 0.00 50 1014.7
20260505162156 32 268 0.0 9.6 0.00 0.00 0.00 50 1014.7
20260505161656 32 330 0.9 7.0 0.00 0.00 0.00 47 1014.7
20260505161457 32 305 4.3 7.0 0.00 0.00 0.00 49 1014.7
20260505161156 32 303 1.7 7.8 0.00 0.00 0.00 48 1014.6
20260505160656 32 306 2.6 9.6 0.00 0.00 0.00 49 1014.6
20260505160357 33 322 5.2 9.6 0.00 0.00 0.00 48 1014.6
20260505160156 33 300 6.1 9.6 0.00 0.00 0.00 49 1014.6
20260505153156 36 313 2.6 8.7 0.00 0.00 0.00 45 1014.3
20260505153057 36 317 5.2 8.7 0.00 0.00 0.00 47 1014.4
20260505152656 36 336 3.5 12.2 0.00 0.00 0.00 47 1014.5
20260505152156 35 282 5.2 11.3 0.00 0.00 0.00 46 1014.5
20260505151957 35 320 4.3 11.3 0.00 0.00 0.00 46 1014.5
20260505151656 35 336 2.6 10.4 0.00 0.00 0.00 47 1014.4
20260505151156 35 284 8.7 11.3 0.00 0.00 0.00 45 1014.4
20260505150857 35 258 4.3 8.7 0.00 0.00 0.00 48 1014.4
20260505150656 34 270 3.5 7.8 0.00 0.00 0.00 51 1014.4
20260505150156 33 333 0.0 7.0 0.00 0.00 0.00 51 1014.3
20260505140257 34 300 2.6 7.0 0.00 0.00 0.00 46 1014.1
20260505140156 34 288 3.5 7.0 0.00 0.00 0.00 44 1014.3
20260505130156 33 299 2.6 8.7 0.00 0.00 0.00 42 1014.3
20260505124656 34 316 0.9 11.3 0.00 0.00 0.00 42 1014.1
20260505124557 34 317 0.0 11.3 0.00 0.00 0.00 41 1014.1
20260505124156 34 315 0.9 14.8 0.00 0.00 0.00 40 1014.1
20260505123656 34 337 5.2 11.3 0.00 0.00 0.00 42 1014.1
20260505123457 34 271 3.5 11.3 0.00 0.00 0.00 44 1014.1
20260505123156 33 271 1.7 13.0 0.00 0.00 0.00 41 1014.0
20260505122656 34 324 5.2 13.9 0.00 0.00 0.00 41 1014.0
20260505122357 34 316 7.8 13.9 0.00 0.00 0.00 43 1014.1
20260505122156 34 309 12.2 14.8 0.00 0.00 0.00 41 1014.1
20260505121656 34 309 0.0 13.0 0.00 0.00 0.00 42 1014.0
20260505121257 34 291 5.2 10.4 0.00 0.00 0.00 42 1014.0
20260505121156 34 293 7.8 10.4 0.00 0.00 0.00 44 1014.0
20260505120656 33 307 2.6 9.6 0.00 0.00 0.00 47 1013.9
20260505120156 33 288 5.2 11.3 0.00 0.00 0.00 44 1014.0
20260505115656 33 278 6.1 9.6 0.00 0.00 0.00 44 1014.0
20260505115156 33 253 7.0 10.4 0.00 0.00 0.00 45 1013.8
20260505115057 33 300 6.1 10.4 0.00 0.00 0.00 46 1013.9
20260505114656 34 316 2.6 9.6 0.00 0.00 0.00 40 1014.0
20260505114156 34 292 2.6 6.1 0.00 0.00 0.00 46 1013.8
20260505113957 34 334 3.5 6.1 0.00 0.00 0.00 46 1013.9
20260505113656 33 264 3.5 7.8 0.00 0.00 0.00 46 1013.9
20260505113156 34 299 1.7 13.9 0.00 0.00 0.00 44 1013.9
20260505112857 34 295 7.0 13.9 0.00 0.00 0.00 43 1013.9
20260505112656 34 288 2.6 6.1 0.00 0.00 0.00 45 1013.9
20260505112156 34 310 5.2 13.9 0.00 0.00 0.00 43 1014.0
20260505111757 34 300 6.1 11.3 0.00 0.00 0.00 46 1013.9
20260505111656 34 289 1.7 9.6 0.00 0.00 0.00 44 1013.9
20260505111156 33 286 5.2 13.0 0.00 0.00 0.00 46 1013.9
20260505110656 33 289 4.3 10.4 0.00 0.00 0.00 48 1013.9
20260505110156 32 303 4.3 9.6 0.00 0.00 0.00 45 1013.9
20260505102156 32 279 7.8 10.4 0.00 0.00 0.00 48 1013.7
20260505101656 31 307 2.6 8.7 0.00 0.00 0.00 49 1013.8
20260505101156 31 306 7.8 10.4 0.00 0.00 0.00 49 1013.8
20260505100656 32 306 10.4 10.4 0.00 0.00 0.00 47 1013.7
20260505100156 32 261 1.7 9.6 0.00 0.00 0.00 47 1013.6
20260505100057 32 303 5.2 9.6 0.00 0.00 0.00 47 1013.7
20260505095656 32 286 0.0 7.0 0.00 0.00 0.00 50 1013.6
20260505095156 31 293 2.6 13.9 0.00 0.00 0.00 48 1013.6
20260505094957 32 315 2.6 13.9 0.00 0.00 0.00 49 1013.5
20260505094656 32 319 3.5 11.3 0.00 0.00 0.00 46 1013.6
20260505094156 31 350 0.0 9.6 0.00 0.00 0.00 49 1013.6
20260505093857 31 295 1.7 10.4 0.00 0.00 0.00 49 1013.6
20260505093656 31 307 4.3 10.4 0.00 0.00 0.00 48 1013.6
20260505093156 31 333 3.5 7.8 0.00 0.00 0.00 48 1013.5
20260505092757 31 286 0.0 11.3 0.00 0.00 0.00 47 1013.6
20260505092656 31 358 1.7 14.8 0.00 0.00 0.00 45 1013.6
20260505092156 32 309 10.4 13.0 0.00 0.00 0.00 47 1013.6
20260505091656 31 340 5.2 10.4 0.00 0.00 0.00 46 1013.7
20260505091156 32 322 3.5 7.8 0.00 0.00 0.00 48 1013.6
20260505090656 32 330 2.6 8.7 0.00 0.00 0.00 47 1013.5
20260505090557 31 307 7.0 8.7 0.00 0.00 0.00 51 1013.5
20260505090156 31 344 0.0 7.0 0.00 0.00 0.00 50 1013.5
20260505085656 31 299 0.9 9.6 0.00 0.00 0.00 52 1013.5
20260505085458 31 300 9.6 9.6 0.00 0.00 0.00 52 1013.5
20260505085156 31 309 5.2 7.0 0.00 0.00 0.00 50 1013.5
20260505084656 30 316 6.1 9.6 0.00 0.00 0.00 51 1013.5
20260505084358 30 330 3.5 8.7 0.00 0.00 0.00 54 1013.5
20260505084156 30 307 3.5 8.7 0.00 0.00 0.00 53 1013.5
20260505083656 30 313 4.3 8.7 0.00 0.00 0.00 52 1013.4
20260505083257 30 330 5.2 9.6 0.00 0.00 0.00 54 1013.4
20260505083156 29 289 3.5 9.6 0.00 0.00 0.00 54 1013.4
20260505082656 29 295 3.5 10.4 0.00 0.00 0.00 53 1013.4
20260505082156 29 258 5.2 10.4 0.00 0.00 0.00 54 1013.4
20260505081656 29 317 7.0 12.2 0.00 0.00 0.00 55 1013.4
20260505081157 29 324 7.8 13.9 0.00 0.00 0.00 54 1013.4
20260505081058 29 306 12.2 13.0 0.00 0.00 0.00 54 1013.4
20260505080656 29 316 2.6 7.0 0.00 0.00 0.00 57 1013.4
20260505080157 29 317 5.2 11.3 0.00 0.00 0.00 56 1013.4
20260505075958 28 333 5.2 8.7 0.00 0.00 0.00 57 1013.4
20260505075657 28 300 5.2 9.6 0.00 0.00 0.00 58 1013.4
20260505075157 28 289 5.2 10.4 0.00 0.00 0.00 57 1013.4
20260505074858 28 299 9.6 11.3 0.00 0.00 0.00 58 1013.3
20260505074657 28 296 7.8 11.3 0.00 0.00 0.00 59 1013.3
20260505074157 28 268 6.1 10.4 0.00 0.00 0.00 60 1013.3
20260505073758 27 305 7.0 13.0 0.00 0.00 0.00 58 1013.4
20260505073657 27 319 6.1 13.0 0.00 0.00 0.00 59 1013.3
20260505073157 27 322 7.0 13.0 0.00 0.00 0.00 59 1013.4
20260505072657 27 307 7.8 16.5 0.00 0.00 0.00 60 1013.3
20260505072157 27 288 6.1 8.7 0.00 0.00 0.00 61 1013.3
20260505071657 27 327 5.2 10.4 0.00 0.00 0.00 62 1013.1
20260505071558 27 278 6.1 12.2 0.00 0.00 0.00 62 1013.1
20260505071157 27 309 7.0 12.2 0.00 0.00 0.00 61 1013.1
20260505070657 26 316 6.1 8.7 0.00 0.00 0.00 63 1013.0
20260505070458 26 292 4.3 7.0 0.00 0.00 0.00 65 1013.0
20260505070157 26 303 3.5 8.7 0.00 0.00 0.00 64 1013.0
20260505065657 26 306 7.0 9.6 0.00 0.00 0.00 64 1013.0
20260505065358 26 326 3.5 10.4 0.00 0.00 0.00 67 1013.0
20260505065157 26 323 5.2 10.4 0.00 0.00 0.00 65 1013.0
20260505064657 26 291 5.2 9.6 0.00 0.00 0.00 65 1013.0
20260505064258 26 326 2.6 8.7 0.00 0.00 0.00 65 1013.1
20260505064157 25 307 6.1 8.7 0.00 0.00 0.00 65 1013.0
20260505063657 25 317 2.6 7.8 0.00 0.00 0.00 66 1013.0
20260505063157 25 326 4.3 9.6 0.00 0.00 0.00 65 1013.1
20260505062657 25 277 0.9 6.1 0.00 0.00 0.00 67 1013.0
20260505062157 25 337 2.6 6.1 0.00 0.00 0.00 67 1013.0
20260505062058 25 286 0.9 7.0 0.00 0.00 0.00 67 1013.0
20260505061657 24 316 4.3 7.0 0.00 0.00 0.00 67 1013.0
20260505061157 24 288 3.5 7.8 0.00 0.00 0.00 67 1013.0
20260505060958 24 324 5.2 7.0 0.00 0.00 0.00 69 1013.0
20260505060657 24 303 2.6 5.2 0.00 0.00 0.00 70 1012.9
20260505060157 24 313 1.7 5.2 0.00 0.00 0.00 70 1013.0
20260505055858 24 310 1.7 5.2 0.00 0.00 0.00 70 1013.0
20260505055657 24 303 2.6 5.2 0.00 0.00 0.00 71 1013.0
20260505055157 24 303 2.6 6.1 0.00 0.00 0.00 71 1012.9
20260505054758 24 293 1.7 7.0 0.00 0.00 0.00 72 1013.0
20260505054657 24 320 0.9 7.0 0.00 0.00 0.00 72 1013.0
20260505054157 23 293 4.3 4.3 0.00 0.00 0.00 72 1013.0
20260505053657 23 315 1.7 4.3 0.00 0.00 0.00 73 1013.0
20260505053157 23 295 0.9 5.2 0.00 0.00 0.00 74 1012.9
20260505052657 22 295 3.5 7.0 0.00 0.00 0.00 74 1012.9
20260505052558 22 319 2.6 7.0 0.00 0.00 0.00 74 1012.9
20260505052157 22 279 0.0 4.3 0.00 0.00 0.00 75 1012.9
20260505051657 22 278 0.0 4.3 0.00 0.00 0.00 76 1012.9
20260505051458 22 296 0.9 4.3 0.00 0.00 0.00 76 1012.9
20260505051157 21 303 4.3 4.3 0.00 0.00 0.00 77 1012.9
20260505050657 21 278 0.0 4.3 0.00 0.00 0.00 77 1012.9
20260505050358 21 298 0.0 2.6 0.00 0.00 0.00 78 1012.9
20260505050157 21 291 0.0 3.5 0.00 0.00 0.00 78 1013.0
20260505041657 19 295 0.0 1.7 0.00 0.00 0.00 81 1012.6
20260505041157 19 285 1.7 2.6 0.00 0.00 0.00 81 1012.5
20260505040858 19 42 0.0 0.0 0.00 0.00 0.00 81 1012.6
20260505040657 19 42 0.0 0.0 0.00 0.00 0.00 81 1012.5
20260505040157 19 313 0.0 0.0 0.00 0.00 0.00 81 1012.5
20260505035758 19 313 0.0 0.0 0.00 0.00 0.00 81 1012.4
20260505035657 19 313 0.0 0.0 0.00 0.00 0.00 81 1012.4
20260505035157 19 313 0.0 0.0 0.00 0.00 0.00 80 1012.2
20260505034657 19 313 0.0 0.0 0.00 0.00 0.00 80 1012.1
20260505034157 19 313 0.0 0.0 0.00 0.00 0.00 80 1012.2
20260505033657 19 313 0.0 0.0 0.00 0.00 0.00 80 1012.1
20260505033558 19 313 0.0 0.0 0.00 0.00 0.00 80 1012.1
20260505033157 19 313 0.0 0.0 0.00 0.00 0.00 80 1012.2
20260505032657 19 313 0.0 0.0 0.00 0.00 0.00 80 1012.2
20260505032458 19 313 0.0 0.0 0.00 0.00 0.00 80 1012.4
20260505032157 19 313 0.0 0.0 0.00 0.00 0.00 80 1012.4
20260505031657 20 313 0.0 0.0 0.00 0.00 0.00 79 1012.2
20260505031358 20 313 0.0 0.0 0.00 0.00 0.00 80 1012.1
20260505031157 20 313 0.0 0.0 0.00 0.00 0.00 79 1012.1
20260505030657 20 313 0.0 3.5 0.00 0.00 0.00 80 1012.0